Regional Weather Roundup
Issued by NWS

Home | Current Version | Previous Version | Graphics & Text | Print | Product List | Glossary On
Versions: 1 2 3 4 5 6 7 8 9 10 11 12 13 14 15 16 17 18 19 20 21 22 23 24 25 26 27 28 29 30 31 32 33 34 35 36 37 38 39 40 41 42 43 44 45 46 47 48 49 50
000
ASUS43 KMKX 030900
RWRWI

WISCONSIN REGIONAL WEATHER ROUNDUP
NATIONAL WEATHER SERVICE MILWAUKEE/SULLIVAN WI
400 AM CDT THU SEP 03 2015

NOTE: "FAIR" INDICATES FEW OR NO CLOUDS BELOW 12,000 FEET WITH NO
SIGNIFICANT WEATHER AND/OR OBSTRUCTIONS TO VISIBILITY.

WIZ001-002-006>008-014>016-023>028-031000-
NORTHWEST WISCONSIN

CITY           SKY/WX    TMP DP  RH WIND       PRES   REMARKS
SUPERIOR ARPT  FOG       59  59 100 E3        29.97S VSB 1/4
ASHLAND        FOG       62  62 100 CALM      29.97S VSB 1/4
HAYWARD        FOG       60  59  96 NE3       29.96S VSB 1
SIREN          PTCLDY    64  63  97 NE3       29.94S
CUMBERLAND       N/A     63  63 100 CALM      29.94F FOG
RICE LAKE      CLOUDY    64  62  95 CALM      29.95S FOG
CHETEK         MOCLDY   N/A N/A N/A NE3       29.94S
LADYSMITH      FOG       64  62  96 CALM      29.97S VSB 1/4
EAU CLAIRE     NOT AVBL
MENOMONIE      CLOUDY    67  67  99 CALM      29.92S FOG
NEW RICHMOND   PTCLDY    65  65  99 CALM      29.92S
OSCEOLA        MOCLDY    65  65 100 E3        29.94S
$$

WIZ003>005-009-010-017-018-031000-
NORTH CENTRAL WISCONSIN

CITY           SKY/WX    TMP DP  RH WIND       PRES   REMARKS
MANITOWISH WTR CLOUDY    62  62 100 CALM      29.97F FOG
ARBOR VITAE    CLOUDY    64  63  94 CALM      29.96F
WOODRUFF       CLOUDY    64  63  94 CALM      29.96F
RHINELANDER    CLOUDY    65  63  93 NE5       29.97S
EAGLE RIVER    CLOUDY    63  63 100 N5        29.96S
LAND O LAKES   FOG       63  63  99 CALM      29.98S VSB 1/2
PHILLIPS       CLOUDY    63  63 100 NE7       29.96S
TOMAHAWK       CLOUDY    64  63  96 CALM      29.96S
MEDFORD        CLOUDY    66  66 100 NE3       29.95S FOG
MERRILL        CLOUDY    65  65 100 NE3       29.95S
$$

WIZ029-030-035-036-043>047-031000-
CENTRAL WISCONSIN

CITY           SKY/WX    TMP DP  RH WIND       PRES   REMARKS
WAUSAU         PTCLDY    68  66  93 NW5       29.91F
MOSINEE        MOCLDY    64  64 100 CALM      29.93F FOG
MARSHFIELD     MOCLDY    68  65  90 CALM      29.93F FOG
STEVENS POINT  CLOUDY    67  66  98 CALM      29.93S
WAUPACA        CLOUDY    71  71  99 SW3       29.91F FOG
WAUTOMA        NOT AVBL
WISC RAPIDS    CLOUDY    71  67  87 CALM      29.93F
CAMP DOUGLAS   CLEAR     69  69 100 N3        29.92R
$$

WIZ011>013-019>022-031-037>040-048>050-031000-
NORTHEAST WISCONSIN

CITY           SKY/WX    TMP DP  RH WIND       PRES   REMARKS
ANTIGO         CLOUDY    64  64  99 N7        29.94S
SHAWANO        NOT AVBL
OCONTO         CLOUDY    65  65 100 CALM      29.88R
STURGEON BAY   CLOUDY    66  63  88 E3        29.90F
GREEN BAY      CLOUDY    70  69  97 CALM      29.89R FOG
MANITOWOC      NOT AVBL
APPLETON       CLOUDY    68  68 100 SW8       29.89S
CLINTONVILLE   CLOUDY    68  66  94 N3        29.89F
OSHKOSH        CLOUDY    73  70  90 CALM      29.91R
$$

WIZ032>034-041-042-053>061-031000-
SOUTHWEST WISCONSIN

CITY           SKY/WX    TMP DP  RH WIND       PRES   REMARKS
LA CROSSE      CLEAR     73  69  87 SE6       29.90R
SPARTA         CLEAR     65  64  94 CALM      29.92S
VIROQUA          N/A     69  69 100 SW3       29.94R
BOSCOBEL       CLEAR     70  68  93 CALM      29.92R FOG
PRAIRIE DU CHI MOCLDY    73  68  86 CALM      29.91S
PLATTEVILLE    CLOUDY    72  70  94 CALM      29.94R
$$

WIZ056-057-062-063-064-067-068-031000-
SOUTH CENTRAL WISCONSIN

CITY           SKY/WX    TMP DP  RH WIND       PRES   REMARKS
REEDSBURG      CLEAR     73  69  88 W7        29.92S
BARABOO/DELLS  CLEAR     73  66  80 W3        29.92S
LONE ROCK      NOT AVBL
MINERAL POINT  PTCLDY    72  70  94 S5        29.95R
MADISON        CLEAR     72  68  87 SW5       29.92S
MIDDLETON      CLEAR     73  68  83 SW5       29.93S
WATERTOWN      CLEAR     70  70 100 CALM      29.92S
MONROE         CLEAR     72  68  88 SW9       29.95R
JANESVILLE     CLEAR     72  70  94 CALM      29.93S
$$

WIZ051-052-058>065-066-070>072-031000-
SOUTHEAST WISCONSIN

CITY           SKY/WX    TMP DP  RH WIND       PRES   REMARKS
MILWAUKEE      PTCLDY    73  69  87 SW9       29.92F
WAUKESHA       CLEAR     70  66  88 SW6       29.94F
MILWAUKEE/TIMM CLEAR     73  66  78 SW7       29.92F
RACINE         PTCLDY    73  68  84 SW7       29.94F
BURLINGTON     CLEAR     68  67  95 SW5       29.94S
KENOSHA        CLEAR     72  68  87 SW5       29.94S
FOND DU LAC    MOCLDY    73  69  87 N10       29.92R
SHEBOYGAN      MOCLDY    72  67  84 N12G23    29.92R
WEST BEND      MOCLDY    73  66  78 W6        29.92R
JUNEAU         CLOUDY    70  68  94 CALM      29.93R
$$

LSZ147-162-031000-
LAKE SUPERIOR

STATION/POSITION TIME  TEMP    WIND        PRES    WAVE
                       AIR SEA DIR/SP/G            HT/PER
                 (UTC) (F)     (DEG/KT/KT) (MB)    (FT/S)
W MID LAKE BUOY  0750   57 56   30/  6/  8 1014.9R   0
DEVILS ISLAND    0800   57      40/ 12/ 13 1015.1R
PORT WING        0800   59      40/  5/  6 1014.9S
SAXON HARBOR     0840   58        CALM     1014.2S
$$

LMZ867-665-643>646-031000-
LAKE MICHIGAN

STATION/POSITION TIME  TEMP    WIND        PRES    WAVE
                       AIR SEA DIR/SP/G            HT/PER
                 (UTC) (F)     (DEG/KT/KT) (MB)    (FT/S)
CHAMBERS ISLAND  0800   67      70/  7/ 11 1012.2F
S GREEN BAY BUOY 0800   67 66   90/  4/  6 1013.1F
N MID LAKE BUOY  0750   66 66   50/ 14/ 17 1013.2F   1/ 3
NORTHPORT PIER   0800   66      90/ 15/ 21 1012.5F
SISTER BAY       0841   66     130/ 10/ 14   N/A
ALGOMA LAKESHORE 0814           70/  7/  7   N/A
KEWAUNEE LAKESHO 0800   58      30/  6/  8 1011.0F
SHEBOYGAN LAKESH 0800   71     190/  7/  7 1012.0F
PORT WASHINGTON  0800   63      CALM  /  5 1013.2F
ATWATER BUOY     0800   59     150/  8/  8 1014.5F
MILWAUKEE LAKESH 0810   76     230/  8/  9   N/A
S MID LAKE BUOY  0750   74 71  200/  8/  8 1013.2S   0
KENOSHA   LAKESH 0800   77     230/  7/ 10 1013.5R
$$

TC  - TEMPERATURE IN CELSIUS
VSB - VISIBILITY IN STATUTE MILES
WCI - WIND CHILL INDEX
HX  - HEAT INDEX



USA.gov is the U.S. government's official web portal to all federal, state and local government web resources and services.